Location: Newark
(55.7083°N, 13.1992°E)
Time: 20:52:00
(UTC+00:00)

N. Korean satellite - Pass Details

Date: 24 January 2020
Orbit: 456 x 505 km, 97.2° (Epoch: 22 February)

Event Time Altitude Azimuth Distance (km) Brightness Sun altitude
Rises 16:48:08 0° 198° (SSW) 2,467 10.7 -11.5°
Reaches altitude 10° 16:50:29 10° 215° (SW) 1,599 10.0 -11.9°
Maximum altitude 16:53:13 22° 268° (W) 1,061 9.3 -12.2°
Drops below altitude 10° 16:55:58 10° 320° (NW) 1,617 9.5 -12.6°
Sets 16:58:22 0° 337° (NNW) 2,503 10.3 -12.9°
